When you browse on this site, cookies collect data to enhance your experience and personalize the content and advertising you see.
Visit our Privacy Policy to learn more. By continuing to use the site, you agree to this use of cookies and data.
  • In Hungary
  • List of Countries
  • For 7 days
  • Water Temperature
  • Weather Map
  • News
  • Weather Widgets
  • user-avatar
    Login

    Hourly Weather Goreckoe

    Today, 22 February, Saturday

    Time Temperature Precipitation Wind Pressure Humidity
    00:00 -2°C° 0 mm 2 mps 763 mmHg 91%
    01:00 -2°C° 0 mm 2 mps 763 mmHg 91%
    02:00 -2°C° 0 mm 2 mps 763 mmHg 91%
    03:00 -1°C° 0 mm 1 mps 763 mmHg 87%
    04:00 -3°C° 0 mm 2 mps 763 mmHg 89%
    05:00 -3°C° 0 mm 2 mps 763 mmHg 90%
    06:00 -4°C° 0 mm 2 mps 763 mmHg 92%
    07:00 -4°C° 0 mm 2 mps 764 mmHg 92%
    08:00 -5°C° 0 mm 2 mps 764 mmHg 93%
    09:00 -5°C° 0 mm 2 mps 764 mmHg 93%
    10:00 -5°C° 0 mm 2 mps 765 mmHg 93%
    11:00 -5°C° 0 mm 3 mps 765 mmHg 92%
    12:00 -5°C° 0 mm 3 mps 765 mmHg 91%
    13:00 -5°C° 0 mm 3 mps 765 mmHg 92%
    14:00 -3°C° 0 mm 2 mps 765 mmHg 92%
    15:00 -3°C° 0 mm 2 mps 765 mmHg 92%
    16:00 -4°C° 0 mm 2 mps 764 mmHg 92%
    17:00 -5°C° 0 mm 2 mps 764 mmHg 92%
    18:00 -7°C° 0 mm 2 mps 764 mmHg 93%
    19:00 -7°C° 0 mm 2 mps 764 mmHg 93%
    20:00 -7°C° 0 mm 2 mps 764 mmHg 93%
    21:00 -7°C° 0 mm 2 mps 765 mmHg 92%
    22:00 -7°C° 0 mm 2 mps 764 mmHg 93%
    23:00 -7°C° 0 mm 2 mps 763 mmHg 94%

    Tomorrow, 23 February, Sunday

    Time Temperature Precipitation Wind Pressure Humidity
    00:00 -7°C° 0 mm 2 mps 763 mmHg 95%
    01:00 -6°C° 0 mm 2 mps 763 mmHg 95%
    02:00 -6°C° 0 mm 2 mps 763 mmHg 95%
    03:00 -6°C° 0 mm 2 mps 762 mmHg 95%
    04:00 -5°C° 0 mm 2 mps 762 mmHg 95%
    05:00 -5°C° 0 mm 2 mps 761 mmHg 95%
    06:00 -6°C° 0 mm 3 mps 760 mmHg 95%
    07:00 -5°C° 0 mm 3 mps 760 mmHg 94%
    08:00 -4°C° 0 mm 4 mps 760 mmHg 94%
    09:00 -5°C° 0 mm 5 mps 759 mmHg 93%
    10:00 -4°C° 0.1 mm 5 mps 758 mmHg 95%
    11:00 -4°C° 0.1 mm 5 mps 757 mmHg 97%
    12:00 -3°C° 0.1 mm 6 mps 757 mmHg 99%
    13:00 -3°C° 0 mm 6 mps 756 mmHg 95%
    14:00 -3°C° 0 mm 6 mps 755 mmHg 91%
    15:00 -2°C° 0 mm 6 mps 754 mmHg 87%
    16:00 -3°C° 0 mm 6 mps 753 mmHg 90%
    17:00 -3°C° 0 mm 6 mps 752 mmHg 93%
    18:00 -3°C° 0 mm 6 mps 752 mmHg 95%
    19:00 -3°C° 0.1 mm 6 mps 751 mmHg 96%
    20:00 -2°C° 0.1 mm 6 mps 751 mmHg 97%
    21:00 -2°C° 0.1 mm 7 mps 750 mmHg 98%
    22:00 -2°C° 0.1 mm 7 mps 749 mmHg 97%
    23:00 -3°C° 0.1 mm 7 mps 749 mmHg 96%

    Day after tomorrow, 24 February, Monday

    Time Temperature Precipitation Wind Pressure Humidity
    00:00 -4°C° 0.1 mm 8 mps 748 mmHg 96%
    01:00 -4°C° 0.2 mm 8 mps 747 mmHg 96%
    02:00 -4°C° 0.2 mm 8 mps 746 mmHg 96%
    03:00 -4°C° 0.2 mm 9 mps 746 mmHg 96%
    04:00 -4°C° 0.3 mm 8 mps 745 mmHg 96%
    05:00 -2°C° 0.3 mm 8 mps 745 mmHg 96%
    06:00 -2°C° 0.3 mm 8 mps 745 mmHg 97%
    07:00 -2°C° 0 mm 7 mps 745 mmHg 94%
    08:00 -2°C° 0 mm 6 mps 746 mmHg 91%
    09:00 -2°C° 0 mm 6 mps 746 mmHg 88%
    10:00 -1°C° 0 mm 5 mps 746 mmHg 90%
    11:00 -1°C° 0 mm 5 mps 747 mmHg 93%
    12:00 -1°C° 0 mm 4 mps 747 mmHg 95%
    13:00 -1°C° 0 mm 4 mps 747 mmHg 96%
    14:00 0°C° 0 mm 3 mps 747 mmHg 97%
    15:00 0°C° 0 mm 3 mps 746 mmHg 98%
    16:00 -1°C° 0.1 mm 4 mps 746 mmHg 97%
    17:00 -1°C° 0.1 mm 4 mps 746 mmHg 97%
    18:00 -1°C° 0.1 mm 5 mps 745 mmHg 97%
    19:00 -2°C° 0.3 mm 6 mps 745 mmHg 97%
    20:00 -2°C° 0.3 mm 6 mps 745 mmHg 97%
    21:00 -2°C° 0.3 mm 6 mps 745 mmHg 97%
    22:00 -1°C° 0.7 mm 6 mps 744 mmHg 98%
    23:00 -1°C° 0.7 mm 7 mps 744 mmHg 98%

    25 February, Tuesday

    Time Temperature Precipitation Wind Pressure Humidity
    00:00 -1°C° 0.7 mm 7 mps 743 mmHg 98%
    01:00 -1°C° 0.8 mm 8 mps 743 mmHg 97%
    02:00 -1°C° 0.8 mm 8 mps 742 mmHg 97%
    03:00 -1°C° 0.8 mm 9 mps 742 mmHg 97%
    04:00 -1°C° 0.7 mm 8 mps 741 mmHg 97%
    05:00 -1°C° 0.7 mm 7 mps 741 mmHg 97%
    06:00 -1°C° 0.7 mm 7 mps 740 mmHg 97%
    07:00 -1°C° 0.4 mm 6 mps 740 mmHg 96%
    08:00 -1°C° 0.4 mm 6 mps 740 mmHg 95%
    09:00 0°C° 0.4 mm 5 mps 740 mmHg 94%
    10:00 0°C° 0 mm 5 mps 740 mmHg 96%
    11:00 -1°C° 0 mm 5 mps 740 mmHg 97%
    12:00 -1°C° 0 mm 4 mps 741 mmHg 98%
    13:00 -2°C° 0.4 mm 6 mps 741 mmHg 97%
    14:00 -2°C° 0.4 mm 8 mps 742 mmHg 96%
    15:00 -4°C° 0.4 mm 11 mps 743 mmHg 95%
    16:00 -4°C° 0.1 mm 10 mps 744 mmHg 88%
    17:00 -5°C° 0.1 mm 10 mps 745 mmHg 82%
    18:00 -7°C° 0.1 mm 10 mps 746 mmHg 75%
    19:00 -6°C° 0 mm 8 mps 747 mmHg 76%
    20:00 -6°C° 0 mm 7 mps 749 mmHg 78%
    21:00 -5°C° 0 mm 6 mps 750 mmHg 79%
    22:00 -6°C° 0 mm 6 mps 750 mmHg 80%
    23:00 -6°C° 0 mm 5 mps 751 mmHg 82%

    26 February, Wednesday

    Time Temperature Precipitation Wind Pressure Humidity
    00:00 -5°C° 0 mm 4 mps 751 mmHg 83%
    01:00 -5°C° 0 mm 4 mps 751 mmHg 84%
    02:00 -5°C° 0 mm 3 mps 751 mmHg 84%
    03:00 -5°C° 0 mm 3 mps 752 mmHg 85%
    04:00 -5°C° 0 mm 3 mps 751 mmHg 84%
    05:00 -5°C° 0 mm 4 mps 751 mmHg 84%
    06:00 -5°C° 0 mm 4 mps 751 mmHg 83%
    07:00 -5°C° 0 mm 5 mps 751 mmHg 84%
    08:00 -5°C° 0 mm 5 mps 751 mmHg 84%
    09:00 -4°C° 0 mm 6 mps 751 mmHg 84%
    10:00 -3°C° 0 mm 6 mps 751 mmHg 85%
    11:00 -2°C° 0 mm 6 mps 751 mmHg 86%
    12:00 -2°C° 0 mm 6 mps 751 mmHg 87%
    13:00 -2°C° 0 mm 6 mps 751 mmHg 88%
    14:00 -1°C° 0 mm 5 mps 751 mmHg 90%
    15:00 -1°C° 0 mm 5 mps 751 mmHg 91%
    16:00 -1°C° 0 mm 5 mps 751 mmHg 90%
    17:00 -1°C° 0 mm 5 mps 751 mmHg 90%
    18:00 -1°C° 0 mm 5 mps 751 mmHg 89%
    19:00 -1°C° 0 mm 5 mps 751 mmHg 89%
    20:00 -1°C° 0 mm 5 mps 752 mmHg 88%
    21:00 -1°C° 0 mm 5 mps 752 mmHg 88%
    22:00 -1°C° 0 mm 5 mps 752 mmHg 87%
    23:00 -1°C° 0 mm 5 mps 752 mmHg 86%

    27 February, Thursday

    Time Temperature Precipitation Wind Pressure Humidity
    00:00 -1°C° 0 mm 5 mps 752 mmHg 86%
    01:00 -1°C° 0 mm 5 mps 752 mmHg 86%
    02:00 -1°C° 0 mm 5 mps 753 mmHg 86%
    03:00 -1°C° 0 mm 4 mps 753 mmHg 86%
    04:00 -1°C° 0 mm 5 mps 753 mmHg 82%
    05:00 -1°C° 0 mm 5 mps 753 mmHg 79%
    06:00 -1°C° 0 mm 5 mps 753 mmHg 76%
    07:00 -2°C° 0 mm 6 mps 753 mmHg 73%
    08:00 -2°C° 0 mm 6 mps 753 mmHg 70%
    09:00 -2°C° 0 mm 6 mps 753 mmHg 66%
    10:00 -1°C° 0 mm 6 mps 753 mmHg 67%
    11:00 0°C° 0 mm 7 mps 753 mmHg 69%
    12:00 0°C° 0 mm 7 mps 753 mmHg 70%
    13:00 +2°C° 0 mm 7 mps 753 mmHg 72%
    14:00 +2°C° 0 mm 7 mps 752 mmHg 75%
    15:00 +2°C° 0 mm 7 mps 752 mmHg 77%
    16:00 +2°C° 0 mm 6 mps 752 mmHg 80%
    17:00 +2°C° 0 mm 6 mps 752 mmHg 82%
    18:00 +1°C° 0 mm 5 mps 752 mmHg 85%
    19:00 +1°C° 0 mm 6 mps 752 mmHg 84%
    20:00 +1°C° 0 mm 6 mps 752 mmHg 84%
    21:00 +1°C° 0 mm 6 mps 753 mmHg 84%
    22:00 +1°C° 0 mm 6 mps 753 mmHg 85%
    23:00 +1°C° 0 mm 6 mps 753 mmHg 85%
    Show more